User: anonymous   Login
Location: Unspecified
(0.0000°N, 0.0000°E)
Time: 00:59:02
(UTC+01:00)
Language:

PSLV R/B - Orbit

View from above orbital plane
View from above orbital plane
View from above satellite
View from above satellite

Ground track
Ground track

The orbit data is extracted from the following two-line orbital elements,

1 29713U 07001E   17082.92783088 +.00000347 +00000-0 +46732-4 0  9993
2 29713 097.7551 057.6388 0025743 018.5887 341.6263 14.85029523551301
Epoch (UTC): 23 March 2017 22:16:04
Eccentricity: 0.0025743
inclination: 97.7551°
perigee height: 595 km
apogee height: 631 km
right ascension of ascending node: 57.6388°
argument of perigee: 18.5887°
revolutions per day: 14.85029523
mean anomaly at epoch: 341.6263°
orbit number at epoch: 55130

The dashed part of the orbit path shows where the satellite is in the earth's shadow,  

DLR